Time,TemperatureF,DewpointF,PressureIn,WindDirection,WindDirectionDegrees,WindSpeedMPH,WindSpeedGustMPH,Humidity,HourlyPrecipIn,Conditions,Clouds,dailyrainin,SoftwareType,DateUTC
2013-04-04 00:03:00,21.6,10.2,30.49,NNW,338,0.0,0.0,61,0.00,CLR,,0.00,WeatherDisplay:10.37,2013-04-04 05:03:00,
2013-04-04 00:09:00,21.7,10.7,30.49,NNW,338,0.0,0.0,62,0.00,CLR,,0.00,WeatherDisplay:10.37,2013-04-04 05:09:00,
2013-04-04 00:14:00,21.7,10.7,30.49,NNW,338,0.0,0.0,62,0.00,CLR,,0.00,WeatherDisplay:10.37,2013-04-04 05:14:00,
2013-04-04 00:19:00,21.9,10.9,30.49,NNW,338,0.0,0.0,62,0.00,CLR,,0.00,WeatherDisplay:10.37,2013-04-04 05:19:00,
2013-04-04 00:24:00,21.7,10.7,30.48,NNW,338,0.0,0.0,62,0.00,CLR,,0.00,WeatherDisplay:10.37,2013-04-04 05:24:00,
2013-04-04 00:29:00,21.7,10.3,30.48,NNW,338,0.0,0.0,61,0.00,CLR,,0.00,WeatherDisplay:10.37,2013-04-04 05:29:00,
2013-04-04 00:34:00,21.6,10.2,30.48,NNW,338,0.0,0.0,61,0.00,CLR,,0.00,WeatherDisplay:10.37,2013-04-04 05:34:00,
2013-04-04 00:39:00,21.7,10.3,30.49,NNW,338,0.0,0.0,61,0.00,CLR,,0.00,WeatherDisplay:10.37,2013-04-04 05:39:00,
2013-04-04 00:44:00,21.7,10.7,30.48,NNW,338,0.0,0.0,62,0.00,CLR,,0.00,WeatherDisplay:10.37,2013-04-04 05:44:00,
2013-04-04 00:49:00,21.7,10.7,30.48,NNW,338,0.0,0.0,62,0.00,CLR,,0.00,WeatherDisplay:10.37,2013-04-04 05:49:00,
2013-04-04 00:54:00,21.7,10.7,30.48,NNW,338,0.0,0.0,62,0.00,CLR,,0.00,WeatherDisplay:10.37,2013-04-04 05:54:00,
2013-04-04 01:00:00,22.3,11.2,30.48,NNW,338,0.0,0.0,62,0.00,CLR,,0.00,WeatherDisplay:10.37,2013-04-04 06:00:00,
2013-04-04 01:05:00,22.5,11.4,30.48,NNW,338,0.0,0.0,62,0.00,CLR,,0.00,WeatherDisplay:10.37,2013-04-04 06:05:00,
2013-04-04 01:10:00,22.5,11.8,30.47,NNW,338,0.0,0.0,63,0.00,CLR,,0.00,WeatherDisplay:10.37,2013-04-04 06:10:00,
2013-04-04 01:15:00,22.6,11.9,30.47,NNW,338,0.0,0.0,63,0.00,CLR,,0.00,WeatherDisplay:10.37,2013-04-04 06:15:00,
2013-04-04 01:20:00,22.6,11.9,30.47,NNW,338,0.0,0.0,63,0.00,CLR,,0.00,WeatherDisplay:10.37,2013-04-04 06:20:00,
2013-04-04 01:25:00,22.6,11.6,30.47,NNW,338,0.0,0.0,62,0.00,CLR,,0.00,WeatherDisplay:10.37,2013-04-04 06:25:00,
2013-04-04 01:30:00,22.5,11.4,30.47,NNW,338,0.0,0.0,62,0.00,CLR,,0.00,WeatherDisplay:10.37,2013-04-04 06:30:00,
2013-04-04 01:35:00,22.5,11.4,30.47,NNW,338,0.0,0.0,62,0.00,CLR,,0.00,WeatherDisplay:10.37,2013-04-04 06:35:00,
2013-04-04 01:40:00,22.6,11.9,30.46,NNW,338,0.0,0.0,63,0.00,CLR,,0.00,WeatherDisplay:10.37,2013-04-04 06:40:00,
2013-04-04 01:45:00,22.8,12.1,30.46,NNW,338,0.0,0.0,63,0.00,CLR,,0.00,WeatherDisplay:10.37,2013-04-04 06:45:00,
2013-04-04 01:50:00,23.2,12.4,30.46,East,90,0.0,0.0,63,0.00,CLR,,0.00,WeatherDisplay:10.37,2013-04-04 06:50:00,
2013-04-04 01:55:00,23.7,13.0,30.46,ENE,68,0.0,0.0,63,0.00,CLR,,0.00,WeatherDisplay:10.37,2013-04-04 06:55:00,
2013-04-04 02:00:00,23.7,13.0,30.46,ENE,68,0.0,0.0,63,0.00,CLR,,0.00,WeatherDisplay:10.37,2013-04-04 07:00:00,
2013-04-04 02:05:00,24.3,13.5,30.46,ENE,68,0.0,0.0,63,0.00,CLR,,0.00,WeatherDisplay:10.37,2013-04-04 07:05:00,
2013-04-04 02:10:00,24.4,13.6,30.46,ENE,68,0.0,0.0,63,0.00,CLR,,0.00,WeatherDisplay:10.37,2013-04-04 07:10:00,
2013-04-04 02:15:00,24.6,13.8,30.46,ENE,68,0.0,0.0,63,0.00,CLR,,0.00,WeatherDisplay:10.37,2013-04-04 07:15:00,
2013-04-04 02:20:00,25.0,14.2,30.45,ENE,68,0.0,0.0,63,0.00,CLR,,0.00,WeatherDisplay:10.37,2013-04-04 07:20:00,
2013-04-04 02:25:00,25.0,14.2,30.45,ENE,68,0.0,0.0,63,0.00,CLR,,0.00,WeatherDisplay:10.37,2013-04-04 07:25:00,
2013-04-04 02:30:00,25.0,14.2,30.44,ENE,68,0.0,0.0,63,0.00,CLR,,0.00,WeatherDisplay:10.37,2013-04-04 07:30:00,
2013-04-04 02:35:00,24.6,13.8,30.44,ENE,68,0.0,0.0,63,0.00,CLR,,0.00,WeatherDisplay:10.37,2013-04-04 07:35:00,
2013-04-04 02:40:00,24.4,13.3,30.44,ENE,68,0.0,0.0,62,0.00,CLR,,0.00,WeatherDisplay:10.37,2013-04-04 07:40:00,
2013-04-04 02:45:00,24.4,13.3,30.43,ENE,68,0.0,0.0,62,0.00,CLR,,0.00,WeatherDisplay:10.37,2013-04-04 07:45:00,
2013-04-04 02:50:00,24.4,13.3,30.43,ENE,68,0.0,0.0,62,0.00,CLR,,0.00,WeatherDisplay:10.37,2013-04-04 07:50:00,
2013-04-04 02:56:00,24.3,13.1,30.43,ENE,68,0.0,0.0,62,0.00,CLR,,0.00,WeatherDisplay:10.37,2013-04-04 07:56:00,
2013-04-04 03:01:00,24.3,13.1,30.43,ENE,68,0.0,0.0,62,0.00,CLR,,0.00,WeatherDisplay:10.37,2013-04-04 08:01:00,
2013-04-04 03:06:00,23.9,12.8,30.43,ENE,68,0.0,0.0,62,0.00,CLR,,0.00,WeatherDisplay:10.37,2013-04-04 08:06:00,
2013-04-04 03:11:00,23.7,12.2,30.43,ENE,68,0.0,0.0,61,0.00,CLR,,0.00,WeatherDisplay:10.37,2013-04-04 08:11:00,
2013-04-04 03:17:00,23.4,11.9,30.43,ENE,68,0.0,0.0,61,0.00,CLR,,0.00,WeatherDisplay:10.37,2013-04-04 08:17:00,
2013-04-04 03:22:00,23.2,11.7,30.43,ENE,68,0.0,0.0,61,0.00,CLR,,0.00,WeatherDisplay:10.37,2013-04-04 08:22:00,
2013-04-04 03:27:00,23.2,11.7,30.43,ENE,68,0.0,0.0,61,0.00,CLR,,0.00,WeatherDisplay:10.37,2013-04-04 08:27:00,
2013-04-04 03:32:00,23.0,11.9,30.42,ENE,68,0.0,0.0,62,0.00,CLR,,0.00,WeatherDisplay:10.37,2013-04-04 08:32:00,
2013-04-04 03:37:00,22.6,11.6,30.42,ENE,68,0.0,0.0,62,0.00,CLR,,0.00,WeatherDisplay:10.37,2013-04-04 08:37:00,
2013-04-04 03:43:00,22.6,11.6,30.42,ENE,68,0.0,0.0,62,0.00,CLR,,0.00,WeatherDisplay:10.37,2013-04-04 08:43:00,
2013-04-04 03:49:00,22.5,11.8,30.42,ENE,68,0.0,0.0,63,0.00,CLR,,0.00,WeatherDisplay:10.37,2013-04-04 08:49:00,
2013-04-04 03:54:00,22.5,11.8,30.42,East,90,0.0,0.0,63,0.00,CLR,,0.00,WeatherDisplay:10.37,2013-04-04 08:54:00,
2013-04-04 03:59:00,22.5,12.1,30.41,East,90,0.0,0.0,64,0.00,CLR,,0.00,WeatherDisplay:10.37,2013-04-04 08:59:00,
2013-04-04 04:04:00,23.7,13.3,30.41,East,90,0.0,0.0,64,0.00,CLR,,0.00,WeatherDisplay:10.37,2013-04-04 09:04:00,
2013-04-04 04:10:00,24.1,13.3,30.42,East,90,0.0,0.0,63,0.00,CLR,,0.00,WeatherDisplay:10.37,2013-04-04 09:10:00,
2013-04-04 04:15:00,24.3,13.5,30.42,East,90,0.0,0.0,63,0.00,CLR,,0.00,WeatherDisplay:10.37,2013-04-04 09:15:00,
2013-04-04 04:20:00,24.3,13.1,30.41,East,90,0.0,0.0,62,0.00,CLR,,0.00,WeatherDisplay:10.37,2013-04-04 09:20:00,
2013-04-04 04:25:00,24.3,13.1,30.41,East,90,0.0,0.0,62,0.00,CLR,,0.00,WeatherDisplay:10.37,2013-04-04 09:25:00,
2013-04-04 04:30:00,24.3,13.1,30.40,East,90,0.0,0.0,62,0.00,CLR,,0.00,WeatherDisplay:10.37,2013-04-04 09:30:00,
2013-04-04 04:35:00,24.1,12.9,30.41,East,90,0.0,0.0,62,0.00,CLR,,0.00,WeatherDisplay:10.37,2013-04-04 09:35:00,
2013-04-04 04:40:00,23.7,12.6,30.40,East,90,0.0,0.0,62,0.00,CLR,,0.00,WeatherDisplay:10.37,2013-04-04 09:40:00,
2013-04-04 04:45:00,23.2,12.1,30.40,East,90,0.0,0.0,62,0.00,CLR,,0.00,WeatherDisplay:10.37,2013-04-04 09:45:00,
2013-04-04 04:50:00,23.2,11.7,30.40,East,90,0.0,0.0,61,0.00,CLR,,0.00,WeatherDisplay:10.37,2013-04-04 09:50:00,
2013-04-04 04:55:00,23.0,11.9,30.40,East,90,0.0,0.0,62,0.00,CLR,,0.00,WeatherDisplay:10.37,2013-04-04 09:55:00,
2013-04-04 05:00:00,22.6,11.9,30.40,East,90,0.0,0.0,63,0.00,CLR,,0.00,WeatherDisplay:10.37,2013-04-04 10:00:00,
2013-04-04 05:05:00,22.1,11.4,30.40,East,90,0.0,0.0,63,0.00,CLR,,0.00,WeatherDisplay:10.37,2013-04-04 10:05:00,
2013-04-04 05:10:00,22.1,11.4,30.40,East,90,0.0,0.0,63,0.00,CLR,,0.00,WeatherDisplay:10.37,2013-04-04 10:10:00,
2013-04-04 05:15:00,22.1,11.4,30.40,East,90,0.0,0.0,63,0.00,CLR,,0.00,WeatherDisplay:10.37,2013-04-04 10:15:00,
2013-04-04 05:20:00,22.1,12.1,30.40,East,90,0.0,0.0,65,0.00,CLR,,0.00,WeatherDisplay:10.37,2013-04-04 10:20:00,
2013-04-04 05:26:00,21.6,11.6,30.39,East,90,0.0,0.0,65,0.00,CLR,,0.00,WeatherDisplay:10.37,2013-04-04 10:26:00,
2013-04-04 05:31:00,21.6,11.9,30.39,East,90,0.0,0.0,66,0.00,CLR,,0.00,WeatherDisplay:10.37,2013-04-04 10:31:00,
2013-04-04 05:36:00,21.9,12.3,30.39,East,90,0.0,0.0,66,0.00,CLR,,0.00,WeatherDisplay:10.37,2013-04-04 10:36:00,
2013-04-04 05:41:00,22.3,13.0,30.39,East,90,0.0,0.0,67,0.00,CLR,,0.00,WeatherDisplay:10.37,2013-04-04 10:41:00,
2013-04-04 05:47:00,22.5,13.2,30.39,East,90,0.0,0.0,67,0.00,CLR,,0.00,WeatherDisplay:10.37,2013-04-04 10:47:00,
2013-04-04 05:52:00,22.6,13.3,30.39,East,90,0.0,0.0,67,0.00,CLR,,0.00,WeatherDisplay:10.37,2013-04-04 10:52:00,
2013-04-04 05:57:00,23.2,13.5,30.38,East,90,0.0,0.0,66,0.00,CLR,,0.00,WeatherDisplay:10.37,2013-04-04 10:57:00,
2013-04-04 06:02:00,23.2,13.5,30.38,East,90,0.0,0.0,66,0.00,CLR,,0.00,WeatherDisplay:10.37,2013-04-04 11:02:00,
2013-04-04 06:07:00,22.8,12.8,30.38,East,90,0.0,0.0,65,0.00,CLR,,0.00,WeatherDisplay:10.37,2013-04-04 11:07:00,
2013-04-04 06:12:00,22.8,12.8,30.38,East,90,0.0,0.0,65,0.00,CLR,,0.00,WeatherDisplay:10.37,2013-04-04 11:12:00,
2013-04-04 06:17:00,21.9,11.6,30.39,East,90,0.0,0.0,64,0.00,CLR,,0.00,WeatherDisplay:10.37,2013-04-04 11:17:00,
2013-04-04 06:22:00,21.6,11.3,30.38,East,90,0.0,0.0,64,0.00,CLR,,0.00,WeatherDisplay:10.37,2013-04-04 11:22:00,
2013-04-04 06:27:00,21.6,11.3,30.39,East,90,0.0,0.0,64,0.00,CLR,,0.00,WeatherDisplay:10.37,2013-04-04 11:27:00,
2013-04-04 06:32:00,21.6,11.3,30.38,East,90,0.0,0.0,64,0.00,CLR,,0.00,WeatherDisplay:10.37,2013-04-04 11:32:00,
2013-04-04 06:38:00,21.7,11.4,30.38,East,90,0.0,0.0,64,0.00,CLR,,0.00,WeatherDisplay:10.37,2013-04-04 11:38:00,
2013-04-04 06:43:00,21.7,11.4,30.39,East,90,0.0,0.0,64,0.00,CLR,,0.00,WeatherDisplay:10.37,2013-04-04 11:43:00,
2013-04-04 06:48:00,21.7,11.4,30.39,East,90,0.0,0.0,64,0.00,CLR,,0.00,WeatherDisplay:10.37,2013-04-04 11:48:00,
2013-04-04 06:53:00,21.7,11.8,30.39,East,90,0.0,0.0,65,0.00,CLR,,0.00,WeatherDisplay:10.37,2013-04-04 11:53:00,
2013-04-04 06:58:00,21.7,11.8,30.39,East,90,0.0,0.0,65,0.00,CLR,,0.00,WeatherDisplay:10.37,2013-04-04 11:58:00,
2013-04-04 07:03:00,21.7,11.8,30.39,East,90,0.0,0.0,65,0.00,CLR,,0.00,WeatherDisplay:10.37,2013-04-04 12:03:00,
2013-04-04 07:09:00,23.4,13.3,30.39,East,90,0.0,0.0,65,0.00,CLR,,0.00,WeatherDisplay:10.37,2013-04-04 12:09:00,
2013-04-04 07:14:00,23.5,13.8,30.38,East,90,0.0,0.0,66,0.00,CLR,,0.00,WeatherDisplay:10.37,2013-04-04 12:14:00,
2013-04-04 07:19:00,23.5,13.8,30.38,East,90,0.0,0.0,66,0.00,CLR,,0.00,WeatherDisplay:10.37,2013-04-04 12:19:00,
2013-04-04 07:24:00,23.5,13.5,30.38,East,90,0.0,0.0,65,0.00,CLR,,0.00,WeatherDisplay:10.37,2013-04-04 12:24:00,
2013-04-04 07:29:00,25.2,15.0,30.38,East,90,0.0,0.0,65,0.00,CLR,,0.00,WeatherDisplay:10.37,2013-04-04 12:29:00,
2013-04-04 07:34:00,26.1,15.9,30.38,East,90,0.0,0.0,65,0.00,CLR,,0.00,WeatherDisplay:10.37,2013-04-04 12:34:00,
2013-04-04 07:40:00,27.3,17.1,30.38,ESE,116,0.0,0.0,65,0.00,CLR,,0.00,WeatherDisplay:10.37,2013-04-04 12:40:00,
2013-04-04 07:45:00,28.6,18.3,30.38,SE,135,0.0,0.0,65,0.00,CLR,,0.00,WeatherDisplay:10.37,2013-04-04 12:45:00,
2013-04-04 07:50:00,28.6,17.6,30.38,SE,135,0.0,0.0,63,0.00,CLR,,0.00,WeatherDisplay:10.37,2013-04-04 12:50:00,
2013-04-04 07:55:00,28.6,17.6,30.38,SE,146,0.0,0.0,63,0.00,CLR,,0.00,WeatherDisplay:10.37,2013-04-04 12:55:00,
2013-04-04 08:00:00,28.6,16.4,30.38,SSE,164,2.0,5.0,60,0.00,CLR,,0.00,WeatherDisplay:10.37,2013-04-04 13:00:00,
2013-04-04 08:05:00,28.6,16.4,30.38,SE,135,6.9,0.0,60,0.00,CLR,,0.00,WeatherDisplay:10.37,2013-04-04 13:05:00,
2013-04-04 08:10:00,28.6,16.4,30.38,SE,135,5.8,6.5,60,0.00,CLR,,0.00,WeatherDisplay:10.37,2013-04-04 13:10:00,
2013-04-04 08:15:00,28.6,16.4,30.38,SE,135,5.8,6.5,60,0.00,CLR,,0.00,WeatherDisplay:10.37,2013-04-04 13:15:00,
2013-04-04 08:20:00,28.6,16.4,30.38,SSE,158,0.0,4.5,60,0.00,CLR,,0.00,WeatherDisplay:10.37,2013-04-04 13:20:00,
2013-04-04 08:25:00,28.6,16.4,30.38,SSE,158,0.0,0.0,60,0.00,CLR,,0.00,WeatherDisplay:10.37,2013-04-04 13:25:00,
2013-04-04 08:30:00,35.4,22.9,30.38,SSE,158,3.5,0.0,60,0.00,CLR,,0.00,WeatherDisplay:10.37,2013-04-04 13:30:00,
2013-04-04 08:35:00,36.0,19.1,30.38,SE,135,0.0,1.9,50,0.00,CLR,,0.00,WeatherDisplay:10.37,2013-04-04 13:35:00,
2013-04-04 08:40:00,36.0,18.6,30.38,SSW,202,10.4,10.4,49,0.00,CLR,,0.00,WeatherDisplay:10.37,2013-04-04 13:40:00,
2013-04-04 08:45:00,36.9,19.0,30.38,SSE,158,3.5,3.5,48,0.00,CLR,,0.00,WeatherDisplay:10.37,2013-04-04 13:45:00,
2013-04-04 08:50:00,36.9,19.0,30.38,SSE,158,1.2,1.2,48,0.00,CLR,,0.00,WeatherDisplay:10.37,2013-04-04 13:50:00,
2013-04-04 08:55:00,36.9,19.0,30.38,SSE,158,1.2,1.2,48,0.00,CLR,,0.00,WeatherDisplay:10.37,2013-04-04 13:55:00,
2013-04-04 09:00:00,36.9,18.5,30.38,SSE,158,5.8,5.8,47,0.00,CLR,,0.00,WeatherDisplay:10.37,2013-04-04 14:00:00,
2013-04-04 09:05:00,36.9,18.5,30.37,SSE,158,1.0,6.0,47,0.00,CLR,,0.00,WeatherDisplay:10.37,2013-04-04 14:05:00,
2013-04-04 09:10:00,41.2,22.5,30.37,South,180,2.3,4.6,47,0.00,CLR,,0.00,WeatherDisplay:10.37,2013-04-04 14:10:00,
2013-04-04 09:15:00,41.2,19.8,30.37,South,180,2.3,2.3,42,0.00,CLR,,0.00,WeatherDisplay:10.37,2013-04-04 14:15:00,
2013-04-04 09:20:00,41.2,18.7,30.37,SW,225,3.5,0.0,40,0.00,CLR,,0.00,WeatherDisplay:10.37,2013-04-04 14:20:00,
2013-04-04 09:25:00,41.2,18.7,30.37,SSE,158,4.6,4.6,40,0.00,CLR,,0.00,WeatherDisplay:10.37,2013-04-04 14:25:00,
2013-04-04 09:30:00,43.7,20.3,30.37,South,180,5.8,6.0,39,0.00,CLR,,0.00,WeatherDisplay:10.37,2013-04-04 14:30:00,
2013-04-04 09:35:00,44.2,18.9,30.37,WSW,248,8.1,8.1,36,0.00,CLR,,0.00,WeatherDisplay:10.37,2013-04-04 14:35:00,
2013-04-04 09:40:00,44.6,18.6,30.36,SSW,202,0.0,0.0,35,0.00,CLR,,0.00,WeatherDisplay:10.37,2013-04-04 14:40:00,
2013-04-04 09:45:00,45.0,18.9,30.36,South,180,0.0,0.0,35,0.00,CLR,,0.00,WeatherDisplay:10.37,2013-04-04 14:45:00,
2013-04-04 09:51:00,45.5,20.1,30.35,SSW,202,3.8,3.8,36,0.00,CLR,,0.00,WeatherDisplay:10.37,2013-04-04 14:51:00,
2013-04-04 09:56:00,47.3,19.6,30.35,South,180,6.9,7.2,33,0.00,CLR,,0.00,WeatherDisplay:10.37,2013-04-04 14:56:00,
2013-04-04 10:02:00,47.7,17.7,30.35,SSW,202,5.8,5.8,30,0.00,CLR,,0.00,WeatherDisplay:10.37,2013-04-04 15:02:00,
2013-04-04 10:07:00,48.2,7.8,30.35,SSE,158,6.0,6.0,19,0.00,CLR,,0.00,WeatherDisplay:10.37,2013-04-04 15:07:00,
2013-04-04 10:12:00,48.4,7.9,30.34,SSW,202,8.1,8.1,19,0.00,CLR,,0.00,WeatherDisplay:10.37,2013-04-04 15:12:00,
2013-04-04 10:17:00,48.6,8.1,30.34,South,180,6.9,6.9,19,0.00,CLR,,0.00,WeatherDisplay:10.37,2013-04-04 15:17:00,
2013-04-04 10:22:00,49.1,8.5,30.34,SSE,158,3.5,3.8,19,0.00,CLR,,0.00,WeatherDisplay:10.37,2013-04-04 15:22:00,
2013-04-04 10:27:00,49.5,18.5,30.34,SSW,202,5.8,5.8,29,0.00,CLR,,0.00,WeatherDisplay:10.37,2013-04-04 15:27:00,
2013-04-04 10:32:00,49.6,18.6,30.33,South,180,6.9,6.9,29,0.00,CLR,,0.00,WeatherDisplay:10.37,2013-04-04 15:32:00,
2013-04-04 10:38:00,50.2,18.3,30.33,South,180,6.0,6.0,28,0.00,CLR,,0.00,WeatherDisplay:10.37,2013-04-04 15:38:00,
2013-04-04 10:43:00,50.2,16.6,30.33,SW,225,0.0,0.0,26,0.00,CLR,,0.00,WeatherDisplay:10.37,2013-04-04 15:43:00,
2013-04-04 10:48:00,50.5,17.7,30.33,SSE,158,2.3,2.3,27,0.00,CLR,,0.00,WeatherDisplay:10.37,2013-04-04 15:48:00,
2013-04-04 10:53:00,50.7,17.9,30.33,SW,225,3.5,3.5,27,0.00,CLR,,0.00,WeatherDisplay:10.37,2013-04-04 15:53:00,
2013-04-04 10:58:00,50.9,17.2,30.33,SW,225,6.9,7.4,26,0.00,CLR,,0.00,WeatherDisplay:10.37,2013-04-04 15:58:00,
2013-04-04 11:04:00,51.1,16.4,30.32,SW,225,9.2,9.2,25,0.00,CLR,,0.00,WeatherDisplay:10.37,2013-04-04 16:04:00,
2013-04-04 11:09:00,50.9,16.3,30.32,NNE,22,0.0,9.2,25,0.00,CLR,,0.00,WeatherDisplay:10.37,2013-04-04 16:09:00,
2013-04-04 11:14:00,51.4,17.6,30.32,SSW,202,8.1,0.0,26,0.00,CLR,,0.00,WeatherDisplay:10.37,2013-04-04 16:14:00,
2013-04-04 11:19:00,51.6,17.8,30.32,WSW,248,0.0,5.1,26,0.00,CLR,,0.00,WeatherDisplay:10.37,2013-04-04 16:19:00,
2013-04-04 11:24:00,52.0,17.2,30.32,SW,225,0.0,0.3,25,0.00,CLR,,0.00,WeatherDisplay:10.37,2013-04-04 16:24:00,
2013-04-04 11:29:00,52.0,17.2,30.31,SW,225,5.8,5.8,25,0.00,CLR,,0.00,WeatherDisplay:10.37,2013-04-04 16:29:00,
2013-04-04 11:34:00,52.3,17.5,30.31,WSW,248,5.8,5.8,25,0.00,CLR,,0.00,WeatherDisplay:10.37,2013-04-04 16:34:00,
2013-04-04 11:40:00,52.3,17.5,30.31,WSW,246,6.0,7.0,25,0.00,CLR,,0.00,WeatherDisplay:10.37,2013-04-04 16:40:00,
2013-04-04 11:45:00,52.3,17.5,30.31,WSW,248,6.0,7.0,25,0.00,CLR,,0.00,WeatherDisplay:10.37,2013-04-04 16:45:00,
2013-04-04 11:50:00,52.3,17.5,30.31,West,260,7.0,7.0,25,0.00,CLR,,0.00,WeatherDisplay:10.37,2013-04-04 16:50:00,
2013-04-04 11:55:00,52.3,15.6,30.31,West,270,7.0,0.0,23,0.00,CLR,,0.00,WeatherDisplay:10.37,2013-04-04 16:55:00,
2013-04-04 12:00:00,53.1,17.2,30.29,WSW,249,7.0,7.0,24,0.00,CLR,,0.00,WeatherDisplay:10.37,2013-04-04 17:00:00,
2013-04-04 12:05:00,53.2,16.3,30.29,SSW,211,0.0,5.0,23,0.00,CLR,,0.00,WeatherDisplay:10.37,2013-04-04 17:05:00,
2013-04-04 12:10:00,53.2,16.3,30.29,WSW,248,6.9,6.9,23,0.00,CLR,,0.00,WeatherDisplay:10.37,2013-04-04 17:10:00,
2013-04-04 12:15:00,53.2,16.3,30.28,SW,225,8.1,8.1,23,0.00,CLR,,0.00,WeatherDisplay:10.37,2013-04-04 17:15:00,
2013-04-04 12:20:00,53.2,16.3,30.28,WSW,248,0.0,3.8,23,0.00,CLR,,0.00,WeatherDisplay:10.37,2013-04-04 17:20:00,
2013-04-04 12:25:00,53.2,16.3,30.28,West,270,6.9,6.9,23,0.00,CLR,,0.00,WeatherDisplay:10.37,2013-04-04 17:25:00,
2013-04-04 12:30:00,53.2,15.3,30.28,WSW,248,6.9,6.9,22,0.00,CLR,,0.00,WeatherDisplay:10.37,2013-04-04 17:30:00,
2013-04-04 12:35:00,54.5,15.3,30.27,WNW,284,0.0,7.0,21,0.00,CLR,,0.00,WeatherDisplay:10.37,2013-04-04 17:35:00,
2013-04-04 12:40:00,55.2,14.8,30.27,West,270,3.5,3.5,20,0.00,CLR,,0.00,WeatherDisplay:10.37,2013-04-04 17:40:00,
2013-04-04 12:45:00,55.2,15.9,30.27,WSW,248,0.0,0.0,21,0.00,CLR,,0.00,WeatherDisplay:10.37,2013-04-04 17:45:00,
2013-04-04 12:50:00,56.7,16.0,30.26,WSW,248,1.2,1.2,20,0.00,CLR,,0.00,WeatherDisplay:10.37,2013-04-04 17:50:00,
2013-04-04 12:55:00,57.6,16.7,30.26,WSW,248,0.0,0.0,20,0.00,CLR,,0.00,WeatherDisplay:10.37,2013-04-04 17:55:00,
2013-04-04 13:00:00,58.3,17.3,30.26,West,270,3.5,3.5,20,0.00,CLR,,0.00,WeatherDisplay:10.37,2013-04-04 18:00:00,
2013-04-04 13:05:00,59.0,16.7,30.26,SW,225,3.5,3.5,19,0.00,CLR,,0.00,WeatherDisplay:10.37,2013-04-04 18:05:00,
2013-04-04 13:10:00,59.0,16.7,30.24,SE,135,0.0,0.0,19,0.00,CLR,,0.00,WeatherDisplay:10.37,2013-04-04 18:10:00,
2013-04-04 13:15:00,60.3,17.8,30.24,SSW,202,6.9,6.9,19,0.00,CLR,,0.00,WeatherDisplay:10.37,2013-04-04 18:15:00,
2013-04-04 13:20:00,60.1,17.6,30.24,SSW,202,7.4,7.4,19,0.00,CLR,,0.00,WeatherDisplay:10.37,2013-04-04 18:20:00,
2013-04-04 13:27:00,61.2,18.5,30.24,SSE,158,0.0,0.0,19,0.00,CLR,,0.00,WeatherDisplay:10.37,2013-04-04 18:27:00,
2013-04-04 13:32:00,61.9,19.1,30.24,WSW,248,0.0,0.0,19,0.00,CLR,,0.00,WeatherDisplay:10.37,2013-04-04 18:32:00,
2013-04-04 13:37:00,62.2,19.4,30.23,West,270,4.6,4.6,19,0.00,CLR,,0.00,WeatherDisplay:10.37,2013-04-04 18:37:00,
2013-04-04 13:42:00,63.1,20.2,30.23,West,270,0.0,0.0,19,0.00,CLR,,0.00,WeatherDisplay:10.37,2013-04-04 18:42:00,
2013-04-04 13:47:00,63.5,20.5,30.23,SW,225,8.1,8.1,19,0.00,CLR,,0.00,WeatherDisplay:10.37,2013-04-04 18:47:00,
2013-04-04 13:52:00,63.5,20.5,30.23,SW,225,8.1,8.1,19,0.00,CLR,,0.00,WeatherDisplay:10.37,2013-04-04 18:52:00,
2013-04-04 13:58:00,63.5,20.5,30.23,WSW,248,0.0,0.0,19,0.00,CLR,,0.00,WeatherDisplay:10.37,2013-04-04 18:58:00,
2013-04-04 14:03:00,63.5,20.5,30.23,WSW,248,6.9,7.4,19,0.00,CLR,,0.00,WeatherDisplay:10.37,2013-04-04 19:03:00,
2013-04-04 14:08:00,63.5,20.5,30.23,SW,225,0.0,0.0,19,0.00,CLR,,0.00,WeatherDisplay:10.37,2013-04-04 19:08:00,
2013-04-04 14:13:00,63.9,20.7,30.23,SW,225,3.5,0.0,19,0.00,CLR,,0.00,WeatherDisplay:10.37,2013-04-04 19:13:00,
2013-04-04 14:18:00,64.8,21.5,30.23,WNW,292,1.2,0.0,19,0.00,CLR,,0.00,WeatherDisplay:10.37,2013-04-04 19:18:00,
2013-04-04 14:23:00,65.1,21.8,30.21,WSW,248,4.6,4.6,19,0.00,CLR,,0.00,WeatherDisplay:10.37,2013-04-04 19:23:00,
2013-04-04 14:28:00,64.8,21.5,30.21,SSE,158,0.0,0.0,19,0.00,CLR,,0.00,WeatherDisplay:10.37,2013-04-04 19:28:00,
2013-04-04 14:33:00,65.3,21.9,30.21,WSW,248,6.9,6.9,19,0.00,CLR,,0.00,WeatherDisplay:10.37,2013-04-04 19:33:00,
2013-04-04 14:38:00,66.0,22.5,30.21,WSW,248,0.0,0.0,19,0.00,CLR,,0.00,WeatherDisplay:10.37,2013-04-04 19:38:00,
2013-04-04 14:43:00,65.8,22.4,30.20,West,270,5.8,5.8,19,0.00,CLR,,0.00,WeatherDisplay:10.37,2013-04-04 19:43:00,
2013-04-04 14:48:00,66.2,22.7,30.20,WSW,248,6.9,6.9,19,0.00,CLR,,0.00,WeatherDisplay:10.37,2013-04-04 19:48:00,
2013-04-04 14:53:00,65.7,22.2,30.20,South,180,1.2,1.2,19,0.00,CLR,,0.00,WeatherDisplay:10.37,2013-04-04 19:53:00,
2013-04-04 14:58:00,66.4,22.8,30.19,WSW,248,0.0,0.0,19,0.00,CLR,,0.00,WeatherDisplay:10.37,2013-04-04 19:58:00,
2013-04-04 15:03:00,66.4,22.8,30.19,West,270,0.0,0.0,19,0.00,CLR,,0.00,WeatherDisplay:10.37,2013-04-04 20:03:00,
2013-04-04 15:08:00,67.5,23.7,30.20,SW,225,6.9,6.9,19,0.00,CLR,,0.00,WeatherDisplay:10.37,2013-04-04 20:08:00,
2013-04-04 15:13:00,67.6,23.9,30.19,West,270,0.0,0.0,19,0.00,CLR,,0.00,WeatherDisplay:10.37,2013-04-04 20:13:00,
2013-04-04 15:18:00,68.5,24.6,30.19,WNW,292,0.0,0.0,19,0.00,CLR,,0.00,WeatherDisplay:10.37,2013-04-04 20:18:00,
2013-04-04 15:23:00,67.6,23.9,30.19,WSW,248,0.0,0.0,19,0.00,CLR,,0.00,WeatherDisplay:10.37,2013-04-04 20:23:00,
2013-04-04 15:28:00,68.0,24.2,30.19,South,180,6.9,6.9,19,0.00,CLR,,0.00,WeatherDisplay:10.37,2013-04-04 20:28:00,
2013-04-04 15:33:00,67.3,23.6,30.19,SSW,202,1.2,1.2,19,0.00,CLR,,0.00,WeatherDisplay:10.37,2013-04-04 20:33:00,
2013-04-04 15:38:00,66.9,23.3,30.18,NW,315,1.2,1.2,19,0.00,CLR,,0.00,WeatherDisplay:10.37,2013-04-04 20:38:00,
2013-04-04 15:43:00,67.6,23.9,30.18,West,270,1.2,1.2,19,0.00,CLR,,0.00,WeatherDisplay:10.37,2013-04-04 20:43:00,
2013-04-04 15:48:00,68.0,24.2,30.18,SW,225,3.6,3.6,19,0.00,CLR,,0.00,WeatherDisplay:10.37,2013-04-04 20:48:00,
2013-04-04 15:53:00,67.6,23.9,30.18,WSW,248,0.0,0.0,19,0.00,CLR,,0.00,WeatherDisplay:10.37,2013-04-04 20:53:00,
2013-04-04 15:58:00,68.9,24.9,30.17,WSW,248,0.0,0.0,19,0.00,CLR,,0.00,WeatherDisplay:10.37,2013-04-04 20:58:00,
2013-04-04 16:03:00,68.0,24.2,30.17,WSW,248,3.6,3.6,19,0.00,CLR,,0.00,WeatherDisplay:10.37,2013-04-04 21:03:00,
2013-04-04 16:08:00,67.8,24.0,30.18,WSW,248,0.0,0.0,19,0.00,CLR,,0.00,WeatherDisplay:10.37,2013-04-04 21:08:00,
2013-04-04 16:13:00,69.3,25.2,30.17,WSW,248,0.0,0.0,19,0.00,CLR,,0.00,WeatherDisplay:10.37,2013-04-04 21:13:00,
2013-04-04 16:18:00,69.4,25.3,30.16,WSW,248,0.0,0.0,19,0.00,CLR,,0.00,WeatherDisplay:10.37,2013-04-04 21:18:00,
2013-04-04 16:23:00,69.4,25.3,30.17,WSW,248,3.5,3.5,19,0.00,CLR,,0.00,WeatherDisplay:10.37,2013-04-04 21:23:00,
2013-04-04 16:28:00,68.7,24.8,30.17,WSW,248,5.8,5.8,19,0.00,CLR,,0.00,WeatherDisplay:10.37,2013-04-04 21:28:00,
2013-04-04 16:33:00,69.1,25.1,30.17,WSW,248,8.3,8.3,19,0.00,CLR,,0.00,WeatherDisplay:10.37,2013-04-04 21:33:00,
2013-04-04 16:38:00,68.7,24.8,30.16,WSW,248,3.5,0.0,19,0.00,CLR,,0.00,WeatherDisplay:10.37,2013-04-04 21:38:00,
2013-04-04 16:43:00,69.3,25.2,30.16,WSW,248,5.8,5.8,19,0.00,CLR,,0.00,WeatherDisplay:10.37,2013-04-04 21:43:00,
2013-04-04 16:48:00,68.2,24.3,30.16,WSW,248,5.8,5.8,19,0.00,CLR,,0.00,WeatherDisplay:10.37,2013-04-04 21:48:00,
2013-04-04 16:53:00,68.2,24.3,30.17,WSW,248,3.5,3.5,19,0.00,CLR,,0.00,WeatherDisplay:10.37,2013-04-04 21:53:00,
2013-04-04 16:58:00,67.8,24.0,30.16,WSW,248,6.9,6.9,19,0.00,CLR,,0.00,WeatherDisplay:10.37,2013-04-04 21:58:00,
2013-04-04 17:03:00,67.6,23.9,30.16,WSW,248,0.0,0.0,19,0.00,CLR,,0.00,WeatherDisplay:10.37,2013-04-04 22:03:00,
2013-04-04 17:08:00,67.6,23.9,30.16,WSW,248,3.5,3.5,19,0.00,CLR,,0.00,WeatherDisplay:10.37,2013-04-04 22:08:00,
2013-04-04 17:13:00,68.2,24.3,30.16,WSW,248,1.2,1.2,19,0.00,CLR,,0.00,WeatherDisplay:10.37,2013-04-04 22:13:00,
2013-04-04 17:18:00,68.0,24.2,30.16,WSW,248,4.6,4.6,19,0.00,CLR,,0.00,WeatherDisplay:10.37,2013-04-04 22:18:00,
2013-04-04 17:23:00,68.2,24.3,30.16,WSW,248,8.1,8.1,19,0.00,CLR,,0.00,WeatherDisplay:10.37,2013-04-04 22:23:00,
2013-04-04 17:28:00,68.2,24.3,30.16,WSW,248,4.6,4.6,19,0.00,CLR,,0.00,WeatherDisplay:10.37,2013-04-04 22:28:00,
2013-04-04 17:33:00,66.6,23.0,30.16,WSW,248,5.8,5.8,19,0.00,CLR,,0.00,WeatherDisplay:10.37,2013-04-04 22:33:00,
2013-04-04 17:38:00,66.0,22.5,30.16,WSW,248,1.2,1.2,19,0.00,CLR,,0.00,WeatherDisplay:10.37,2013-04-04 22:38:00,
2013-04-04 17:43:00,66.2,22.7,30.15,WSW,248,5.8,5.8,19,0.00,CLR,,0.00,WeatherDisplay:10.37,2013-04-04 22:43:00,
2013-04-04 17:48:00,65.3,21.9,30.15,WSW,248,7.4,7.4,19,0.00,CLR,,0.00,WeatherDisplay:10.37,2013-04-04 22:48:00,
2013-04-04 17:53:00,65.1,21.8,30.15,WSW,248,6.9,6.9,19,0.00,CLR,,0.00,WeatherDisplay:10.37,2013-04-04 22:53:00,
2013-04-04 17:58:00,63.5,20.5,30.15,WSW,248,6.9,6.9,19,0.00,CLR,,0.00,WeatherDisplay:10.37,2013-04-04 22:58:00,
2013-04-04 18:03:00,62.4,19.6,30.15,WSW,248,5.8,6.3,19,0.00,CLR,,0.00,WeatherDisplay:10.37,2013-04-04 23:03:00,
2013-04-04 18:08:00,61.3,18.7,30.14,SW,225,0.0,0.0,19,0.00,CLR,,0.00,WeatherDisplay:10.37,2013-04-04 23:08:00,
2013-04-04 18:13:00,61.9,19.1,30.15,SW,225,1.2,1.2,19,0.00,CLR,,0.00,WeatherDisplay:10.37,2013-04-04 23:13:00,
2013-04-04 18:18:00,61.5,18.8,30.15,WSW,248,3.5,3.5,19,0.00,CLR,,0.00,WeatherDisplay:10.37,2013-04-04 23:18:00,
2013-04-04 18:23:00,61.2,18.5,30.15,WSW,248,5.8,5.8,19,0.00,CLR,,0.00,WeatherDisplay:10.37,2013-04-04 23:23:00,
2013-04-04 18:28:00,60.6,18.1,30.15,SW,225,8.1,8.1,19,0.00,CLR,,0.00,WeatherDisplay:10.37,2013-04-04 23:28:00,
2013-04-04 18:33:00,59.9,17.5,30.15,SW,225,9.2,9.2,19,0.00,CLR,,0.00,WeatherDisplay:10.37,2013-04-04 23:33:00,
2013-04-04 18:38:00,59.0,16.7,30.14,West,270,6.9,6.9,19,0.00,CLR,,0.00,WeatherDisplay:10.37,2013-04-04 23:38:00,
2013-04-04 18:43:00,58.1,16.0,30.14,WSW,248,2.7,2.7,19,0.00,CLR,,0.00,WeatherDisplay:10.37,2013-04-04 23:43:00,
2013-04-04 18:48:00,57.0,15.1,30.14,SW,225,3.5,0.0,19,0.00,CLR,,0.00,WeatherDisplay:10.37,2013-04-04 23:48:00,
2013-04-04 18:53:00,55.6,13.9,30.14,SW,225,5.1,5.1,19,0.00,CLR,,0.00,WeatherDisplay:10.37,2013-04-04 23:53:00,
2013-04-04 18:58:00,54.9,14.5,30.14,SW,225,5.8,5.8,20,0.00,CLR,,0.00,WeatherDisplay:10.37,2013-04-04 23:58:00,
2013-04-04 19:03:00,54.1,13.9,30.14,SW,225,0.0,0.0,20,0.00,CLR,,0.00,WeatherDisplay:10.37,2013-04-05 00:03:00,
2013-04-04 19:08:00,53.4,13.3,30.14,SW,225,0.0,0.0,20,0.00,CLR,,0.00,WeatherDisplay:10.37,2013-04-05 00:08:00,
2013-04-04 19:13:00,53.1,14.1,30.14,SW,225,0.0,0.0,21,0.00,CLR,,0.00,WeatherDisplay:10.37,2013-04-05 00:13:00,
2013-04-04 19:18:00,52.5,13.6,30.14,SW,225,0.0,0.0,21,0.00,CLR,,0.00,WeatherDisplay:10.37,2013-04-05 00:18:00,
2013-04-04 19:23:00,51.6,12.9,30.14,SW,225,0.0,0.0,21,0.00,CLR,,0.00,WeatherDisplay:10.37,2013-04-05 00:23:00,
2013-04-04 19:28:00,50.4,12.9,30.14,SW,225,0.0,0.0,22,0.00,CLR,,0.00,WeatherDisplay:10.37,2013-04-05 00:28:00,
2013-04-04 19:33:00,49.5,12.1,30.14,SW,225,0.0,0.0,22,0.00,CLR,,0.00,WeatherDisplay:10.37,2013-04-05 00:33:00,
2013-04-04 19:38:00,48.0,7.6,30.14,SW,225,0.0,0.0,19,0.00,CLR,,0.00,WeatherDisplay:10.37,2013-04-05 00:38:00,
2013-04-04 19:43:00,46.6,6.4,30.14,SW,225,0.0,0.0,19,0.00,CLR,,0.00,WeatherDisplay:10.37,2013-04-05 00:43:00,
2013-04-04 19:48:00,45.3,5.4,30.14,SW,225,0.0,0.0,19,0.00,CLR,,0.00,WeatherDisplay:10.37,2013-04-05 00:48:00,
2013-04-04 19:53:00,44.6,4.8,30.14,SW,225,0.0,0.0,19,0.00,CLR,,0.00,WeatherDisplay:10.37,2013-04-05 00:53:00,
2013-04-04 19:58:00,43.5,3.9,30.14,SW,225,0.0,0.0,19,0.00,CLR,,0.00,WeatherDisplay:10.37,2013-04-05 00:58:00,
2013-04-04 20:03:00,43.2,3.6,30.14,SW,225,0.0,0.0,19,0.00,CLR,,0.00,WeatherDisplay:10.37,2013-04-05 01:03:00,
2013-04-04 20:08:00,42.4,3.0,30.14,SW,225,0.0,0.0,19,0.00,CLR,,0.00,WeatherDisplay:10.37,2013-04-05 01:08:00,
2013-04-04 20:13:00,41.7,2.4,30.14,SW,225,0.0,0.0,19,0.00,CLR,,0.00,WeatherDisplay:10.37,2013-04-05 01:13:00,
2013-04-04 20:18:00,41.2,2.0,30.14,SW,225,0.0,0.0,19,0.00,CLR,,0.00,WeatherDisplay:10.37,2013-04-05 01:18:00,
2013-04-04 20:23:00,40.6,1.5,30.14,SW,225,0.0,0.0,19,0.00,CLR,,0.00,WeatherDisplay:10.37,2013-04-05 01:23:00,
2013-04-04 20:28:00,40.5,1.4,30.14,SW,225,0.0,0.0,19,0.00,CLR,,0.00,WeatherDisplay:10.37,2013-04-05 01:28:00,
2013-04-04 20:33:00,40.1,1.1,30.15,SW,225,0.0,0.0,19,0.00,CLR,,0.00,WeatherDisplay:10.37,2013-04-05 01:33:00,
2013-04-04 20:38:00,39.7,0.8,30.15,SW,225,0.0,0.0,19,0.00,CLR,,0.00,WeatherDisplay:10.37,2013-04-05 01:38:00,
2013-04-04 20:43:00,39.6,0.6,30.15,SW,225,0.0,0.0,19,0.00,CLR,,0.00,WeatherDisplay:10.37,2013-04-05 01:43:00,
2013-04-04 20:48:00,39.6,0.6,30.15,SW,225,0.0,0.0,19,0.00,CLR,,0.00,WeatherDisplay:10.37,2013-04-05 01:48:00,
2013-04-04 20:54:00,39.4,0.5,30.15,SW,225,0.0,0.0,19,0.00,CLR,,0.00,WeatherDisplay:10.37,2013-04-05 01:54:00,
2013-04-04 20:59:00,39.0,0.2,30.15,SW,225,0.0,0.0,19,0.00,CLR,,0.00,WeatherDisplay:10.37,2013-04-05 01:59:00,
2013-04-04 21:04:00,38.8,0.0,30.15,SW,225,0.0,0.0,19,0.00,CLR,,0.00,WeatherDisplay:10.37,2013-04-05 02:04:00,
2013-04-04 21:09:00,39.4,2.6,30.15,SW,225,0.0,0.0,21,0.00,CLR,,0.00,WeatherDisplay:10.37,2013-04-05 02:09:00,
2013-04-04 21:14:00,39.4,3.6,30.15,SW,225,0.0,0.0,22,0.00,CLR,,0.00,WeatherDisplay:10.37,2013-04-05 02:14:00,
2013-04-04 21:19:00,39.6,7.4,30.15,SW,225,0.0,0.0,26,0.00,CLR,,0.00,WeatherDisplay:10.37,2013-04-05 02:19:00,
2013-04-04 21:24:00,39.9,9.4,30.15,SW,225,0.0,0.0,28,0.00,CLR,,0.00,WeatherDisplay:10.37,2013-04-05 02:24:00,
2013-04-04 21:29:00,40.1,9.6,30.15,SW,225,0.0,0.0,28,0.00,CLR,,0.00,WeatherDisplay:10.37,2013-04-05 02:29:00,
2013-04-04 21:34:00,40.6,10.8,30.15,SW,225,0.0,0.0,29,0.00,CLR,,0.00,WeatherDisplay:10.37,2013-04-05 02:34:00,
2013-04-04 21:40:00,41.7,11.7,30.15,SW,225,0.0,0.0,29,0.00,CLR,,0.00,WeatherDisplay:10.37,2013-04-05 02:40:00,
2013-04-04 21:45:00,43.0,14.4,30.15,SW,225,0.0,0.0,31,0.00,CLR,,0.00,WeatherDisplay:10.37,2013-04-05 02:45:00,
2013-04-04 21:50:00,44.6,15.0,30.15,SW,225,0.0,0.0,30,0.00,CLR,,0.00,WeatherDisplay:10.37,2013-04-05 02:50:00,
2013-04-04 21:55:00,45.5,14.2,30.15,SW,225,0.0,0.0,28,0.00,CLR,,0.00,WeatherDisplay:10.37,2013-04-05 02:55:00,
2013-04-04 22:00:00,46.4,15.0,30.15,SW,225,0.0,0.0,28,0.00,CLR,,0.00,WeatherDisplay:10.37,2013-04-05 03:00:00,
2013-04-04 22:05:00,46.9,6.7,30.14,SW,225,0.0,0.0,19,0.00,CLR,,0.00,WeatherDisplay:10.37,2013-04-05 03:05:00,
2013-04-04 22:10:00,47.6,7.3,30.14,SW,225,0.0,0.0,19,0.00,CLR,,0.00,WeatherDisplay:10.37,2013-04-05 03:10:00,
2013-04-04 22:15:00,47.7,7.3,30.14,SW,225,0.0,0.0,19,0.00,CLR,,0.00,WeatherDisplay:10.37,2013-04-05 03:15:00,
2013-04-04 22:20:00,47.8,7.5,30.15,SW,225,0.0,0.0,19,0.00,CLR,,0.00,WeatherDisplay:10.37,2013-04-05 03:20:00,
2013-04-04 22:25:00,47.8,7.5,30.14,SW,225,0.0,0.0,19,0.00,CLR,,0.00,WeatherDisplay:10.37,2013-04-05 03:25:00,
2013-04-04 22:30:00,47.8,7.5,30.14,SW,225,0.0,0.0,19,0.00,CLR,,0.00,WeatherDisplay:10.37,2013-04-05 03:30:00,
2013-04-04 22:35:00,47.7,7.3,30.14,SW,225,0.0,0.0,19,0.00,CLR,,0.00,WeatherDisplay:10.37,2013-04-05 03:35:00,
2013-04-04 22:40:00,47.6,7.3,30.14,SW,225,0.0,0.0,19,0.00,CLR,,0.00,WeatherDisplay:10.37,2013-04-05 03:40:00,
2013-04-04 22:45:00,47.3,7.0,30.14,SW,225,0.0,0.0,19,0.00,CLR,,0.00,WeatherDisplay:10.37,2013-04-05 03:45:00,
2013-04-04 22:50:00,46.8,6.7,30.14,SW,225,0.0,0.0,19,0.00,CLR,,0.00,WeatherDisplay:10.37,2013-04-05 03:50:00,
2013-04-04 22:55:00,46.6,6.4,30.14,SW,225,0.0,0.0,19,0.00,CLR,,0.00,WeatherDisplay:10.37,2013-04-05 03:55:00,
2013-04-04 23:00:00,45.9,5.9,30.14,SW,225,0.0,0.0,19,0.00,CLR,,0.00,WeatherDisplay:10.37,2013-04-05 04:00:00,
2013-04-04 23:04:00,45.3,5.4,30.14,SW,225,0.0,0.0,19,0.00,CLR,,0.00,WeatherDisplay:10.37,2013-04-05 04:04:00,
2013-04-04 23:08:00,44.8,5.0,30.13,SW,225,0.0,0.0,19,0.00,CLR,,0.00,WeatherDisplay:10.37,2013-04-05 04:08:00,
2013-04-04 23:13:00,44.1,10.4,30.14,SW,225,0.0,0.0,25,0.00,CLR,,0.00,WeatherDisplay:10.37,2013-04-05 04:13:00,
2013-04-04 23:18:00,43.2,10.5,30.13,SW,225,0.0,0.0,26,0.00,CLR,,0.00,WeatherDisplay:10.37,2013-04-05 04:18:00,
2013-04-04 23:23:00,42.8,12.7,30.14,SW,225,0.0,0.0,29,0.00,CLR,,0.00,WeatherDisplay:10.37,2013-04-05 04:23:00,
2013-04-04 23:28:00,41.5,13.8,30.14,SW,225,0.0,0.0,32,0.00,CLR,,0.00,WeatherDisplay:10.37,2013-04-05 04:28:00,
2013-04-04 23:33:00,41.0,13.4,30.14,SW,225,0.0,0.0,32,0.00,CLR,,0.00,WeatherDisplay:10.37,2013-04-05 04:33:00,
2013-04-04 23:38:00,40.1,14.6,30.14,SW,225,0.0,0.0,35,0.00,CLR,,0.00,WeatherDisplay:10.37,2013-04-05 04:38:00,
2013-04-04 23:43:00,39.9,14.4,30.14,SW,225,0.0,0.0,35,0.00,CLR,,0.00,WeatherDisplay:10.37,2013-04-05 04:43:00,
2013-04-04 23:48:00,39.4,14.6,30.14,SW,225,0.0,0.0,36,0.00,CLR,,0.00,WeatherDisplay:10.37,2013-04-05 04:48:00,
2013-04-04 23:53:00,39.2,15.7,30.14,SW,225,0.0,0.0,38,0.00,CLR,,0.00,WeatherDisplay:10.37,2013-04-05 04:53:00,
2013-04-04 23:58:00,39.0,15.5,30.14,SW,225,0.0,0.0,38,0.00,CLR,,0.00,WeatherDisplay:10.37,2013-04-05 04:58:00,